Weather in Perevoloki

Russia / Samara Oblast     52°53′19″N   49°19′06″E
temp.,
°C
wind,
m/s
gust,
m/s
humid.,
%
clouds,
%
prec.,
mm/h
press.,
hPa
HPBL,
m
3 march, wed
wed301:00−3w349597 0.1 100354
04:00−5wnw239183 0.1 100323
07:00−5wnw3494100 0.1 100375
10:00−5wnw499384 0.1 1005346
13:00−2nw698688 0.0 1005749
16:00−3nw698494 0.1 1006907
19:00−5wnw5128798 0.0 1007478
22:00−9wnw479173 0.0 1010118
4 march, thu
thu401:00−11w349263 0.0 100967
04:00−11wsw479145 0.0 1009104
07:00−9sw6109379 0.0 1008256
10:00−5wsw7139090 0.0 1007626
13:00−1sw91387100 0.0 1004870
16:00+1wsw91588100 0.1 10031031
19:00+1wsw81588100 0.0 1002876
22:00+1wsw81486100 0.1 1003793
5 march, fri
fri501:00+1sw71488100 0.0 1002718
04:00−1sw71488100 0.0 1001473
07:00−1sw81497100 0.9 1000588
10:00+1sw714100100 2.7 999594
13:00+2wsw816100100 0.4 999657
16:000nw61091100 0.6 1003742
19:00−6n478975 0.1 1007138
22:00−9nnw239266 0.1 101234
6 march, sat
sat601:00−12nnw128991 0.0 101421
04:00−12ne239095 0.0 101423
07:00−12e3391100 0.0 101470
10:00−10e3590100 0.0 1012247
13:00−8ene3491100 0.0 1011302
16:00−6nne2487100 0.1 1010356
19:00−11nw229251 0.0 101021
22:00−10w479542 0.1 1012177
7 march, sun
sun701:00−13wnw479233 0.0 1012110
04:00−16wnw459317 0.0 101477
07:00−17w34920 0.0 101565
10:00−15wsw36900 0.0 1016235
13:00−11sw58880 0.0 1015335
16:00−10ssw6118312 0.0 1013490
19:00−10ssw71588100 0.0 1011484
22:00−6ssw91688100 0.1 1008866